Weather History for Chievres, Belgium

Change the Weather History Date:

Tuesday, June 25, 2013

  Actual Average Record
Temperature  
Mean Temperature 62 °F -  
Max Temperature 72 °F 65 °F 78 °F (2010)
Min Temperature 51 °F 54 °F 46 °F (1999)
Degree Days  
Heating Degree Days 4    
Growing Degree Days 12 (Base 50)    
Moisture  
Dew Point 50 °F    
Average Humidity 78    
Maximum Humidity 94    
Minimum Humidity 52    
Precipitation  
Precipitation 0.39 in - - ()
Sea Level Pressure  
Sea Level Pressure 30.34 in    
Wind  
Wind Speed 3 mph ()    
Max Wind Speed 7 mph    
Max Gust Speed -    
Visibility 6.3 miles    
Events      
Averages and records for this station are not official NWS values.
T = Trace of Precipitation, MM = Missing Value Source: Averaged Metar Reports

Daily Weather History Graph

Daily Weather History Graph

Search for Another Location

Airport:

Trip Planner

Search our weather history database for the weather conditions in past years. The results will help you decide how hot, cold, wet, or windy it might be!

Date:

Astronomy

Jun. 25, 2013 Rise Set
Actual Time 5:33 AM CEST 10:00 PM CEST
Civil Twilight 4:47 AM CEST 10:46 PM CEST
Nautical Twilight 3:39 AM CEST 11:54 PM CEST
Astronomical Twilight 2:19 AM CEST 1:15 AM CEST
Moon 11:14 PM CEST (6/25) 8:11 AM CEST (6/25)
Length of Visible Light 17h 58m
Length of Day
16h 27m
Waning Gibbous, 94% of the Moon is Illuminated
Jun 25
Waning Gibbous
Jun 30
Last Quarter
Jul 8
New
Jul 16
First Quarter
Jul 22
Full

Hourly Weather History & Observations

Time (CEST) Temp. Dew Point Humidity Pressure Visibility Wind Dir Wind Speed Gust Speed Precip Events Conditions
12:25 AM 51.8 °F 50.0 °F 94% 30.30 in 4.3 mi North - - N/A   Mostly Cloudy
12:52 AM 51.8 °F 50.0 °F 94% 30.30 in 5.0 mi North - - N/A   Overcast
12:59 AM 51.8 °F 50.0 °F 94% 30.30 in 4.3 mi North - - N/A   Overcast
1:11 AM 51.8 °F 50.0 °F 94% 30.30 in 5.0 mi North - - N/A   Overcast
1:18 AM 51.8 °F 50.0 °F 94% 30.30 in 4.3 mi North - - N/A   Mostly Cloudy
1:25 AM 51.8 °F 50.0 °F 94% 30.30 in 4.3 mi North - - N/A   Mostly Cloudy
2:00 AM 52 °F 50 °F 91% 30.31 in 4 mi Calm Calm - -   Clear
2:25 AM 51.8 °F 50.0 °F 94% 30.30 in 3.7 mi North - - N/A   Mostly Cloudy
3:25 AM 51.8 °F 50.0 °F 94% 30.30 in 3.1 mi North - - N/A   Mostly Cloudy
4:25 AM 51.8 °F 50.0 °F 94% 30.30 in 3.1 mi North - - N/A   Mostly Cloudy
5:00 AM 52 °F 51 °F 94% 30.32 in 3 mi Calm Calm - -   Scattered Clouds
5:25 AM 51.8 °F 50.0 °F 94% 30.30 in 3.7 mi WSW 2.3 mph - N/A   Mostly Cloudy
6:25 AM 51.8 °F 50.0 °F 94% 30.30 in 3.7 mi WSW 2.3 mph - N/A   Mostly Cloudy
7:25 AM 51.8 °F 50.0 °F 94% 30.33 in 3.7 mi NNW 1.2 mph - N/A   Mostly Cloudy
8:00 AM 53 °F 51 °F 90% 30.34 in 4 mi NW 2.2 mph - -   Overcast
8:25 AM 53.6 °F 50.0 °F 88% 30.33 in 4.3 mi NNE 1.2 mph - N/A   Mostly Cloudy
8:32 AM 53.6 °F 46.4 °F 77% 30.33 in 5.0 mi Variable 1.2 mph - N/A   Mostly Cloudy
9:25 AM 55.4 °F 50.0 °F 82% 30.33 in 6.2 mi NW 3.5 mph - N/A   Mostly Cloudy
10:25 AM 60.8 °F 50.0 °F 68% 30.33 in 6.2 mi Variable 1.2 mph - N/A   Partly Cloudy
11:00 AM 60 °F 52 °F 67% 30.35 in 12 mi 4.5 mph - -   Scattered Clouds
11:25 AM 62.6 °F 51.8 °F 68% 30.36 in 6.2 mi WNW 4.6 mph - N/A   Partly Cloudy
12:25 PM 60.8 °F 50.0 °F 68% 30.36 in 6.2 mi WNW 6.9 mph - N/A   Scattered Clouds
1:25 PM 60.8 °F 48.2 °F 63% 30.36 in 6.2 mi North 5.8 mph - N/A   Mostly Cloudy
2:00 PM 62 °F 51 °F 57% 30.37 in 12 mi NNE 6.7 mph - -   Partly Cloudy
2:25 PM 62.6 °F 48.2 °F 59% 30.36 in 6.2 mi NNE 3.5 mph - N/A   Mostly Cloudy
3:25 PM 64.4 °F 51.8 °F 64% 30.36 in 6.2 mi NNW 4.6 mph - N/A   Mostly Cloudy
4:25 PM 64.4 °F 48.2 °F 56% 30.36 in 6.2 mi West 6.9 mph - N/A   Mostly Cloudy
5:00 PM 62 °F 49 °F 52% 30.38 in 14 mi NW 4.5 mph - -   Mostly Cloudy
5:25 PM 59.0 °F 50.0 °F 72% 30.39 in 6.2 mi North - - N/A   Mostly Cloudy
6:25 PM 60.8 °F 50.0 °F 68% 30.36 in 6.2 mi North - - N/A   Mostly Cloudy
7:25 PM 62.6 °F 50.0 °F 63% 30.36 in 6.2 mi North - - N/A   Mostly Cloudy
8:00 PM 61 °F 48 °F 53% 30.38 in 19 mi Calm Calm - -   Clear
8:25 PM 60.8 °F 48.2 °F 63% 30.39 in 6.2 mi North - - N/A   Clear
9:25 PM 57.2 °F 48.2 °F 72% 30.39 in 6.2 mi North - - N/A   Clear
10:25 PM 53.6 °F 48.2 °F 82% 30.42 in 6.2 mi North - - N/A   Clear
11:00 PM 53 °F 47 °F 73% 30.43 in 15 mi Calm Calm - -  
11:25 PM 51.8 °F 46.4 °F 82% 30.42 in 6.2 mi North - - N/A   Clear